Location: Waco, TX
(31.5480°N, 97.1670°W)
Time: 01:59:26
(UTC-06:00)

ISS - Pass Details

Date: 27 January 2021
Orbit: 417 x 422 km, 51.6° (Epoch: 09 March)

Event Time Altitude Azimuth Distance (km) Brightness Sun altitude
Rises 15:29:20 0° 241° (WSW) 2,352 1.2 26.0°
Reaches altitude 10° 15:31:31 10° 250° (WSW) 1,492 0.3 25.7°
Maximum altitude 15:34:39 36° 319° (NW) 682 -2.5 25.2°
Drops below altitude 10° 15:37:48 10° 28° (NNE) 1,502 -1.4 24.7°
Sets 15:40:01 0° 37° (NE) 2,369 -0.5 24.4°
